Year,Month,Day,Hour,Minute,Value (Times are PST for windspeed in km/hr)
2007,04,10,00,00,8.00
2007,04,10,00,01,9.50
2007,04,10,00,02,4.40
2007,04,10,00,03,5.20
2007,04,10,00,04,4.80
2007,04,10,00,05,6.30
2007,04,10,00,06,8.00
2007,04,10,00,07,7.20
2007,04,10,00,08,12.10
2007,04,10,00,09,11.60
2007,04,10,00,10,9.30
2007,04,10,00,11,7.40
2007,04,10,00,12,10.50
2007,04,10,00,13,9.00
2007,04,10,00,14,7.00
2007,04,10,00,15,9.90
2007,04,10,00,16,7.40
2007,04,10,00,17,9.90
2007,04,10,00,18,9.20
2007,04,10,00,19,13.90
2007,04,10,00,20,8.00
2007,04,10,00,21,10.70
2007,04,10,00,22,14.10
2007,04,10,00,23,9.00
2007,04,10,00,24,15.40
2007,04,10,00,25,14.60
2007,04,10,00,26,16.10
2007,04,10,00,27,10.80
2007,04,10,00,28,4.30
2007,04,10,00,29,3.90
2007,04,10,00,30,9.70
2007,04,10,00,31,14.70
2007,04,10,00,32,15.30
2007,04,10,00,33,12.10
2007,04,10,00,34,7.10
2007,04,10,00,35,6.90
2007,04,10,00,36,7.10
2007,04,10,00,37,8.80
2007,04,10,00,38,9.00
2007,04,10,00,39,12.00
2007,04,10,00,40,7.40
2007,04,10,00,41,6.30
2007,04,10,00,42,4.20
2007,04,10,00,43,7.20
2007,04,10,00,44,5.00
2007,04,10,00,45,7.60
2007,04,10,00,46,9.30
2007,04,10,00,47,9.80
2007,04,10,00,48,8.20
2007,04,10,00,49,9.10
2007,04,10,00,50,9.00
2007,04,10,00,51,7.20
2007,04,10,00,52,7.00
2007,04,10,00,53,4.40
2007,04,10,00,54,5.30
2007,04,10,00,55,6.00
2007,04,10,00,56,5.80
2007,04,10,00,57,5.10
2007,04,10,00,58,5.40
2007,04,10,00,59,6.30
2007,04,10,01,00,0.50
2007,04,10,01,01,3.90
2007,04,10,01,02,6.50
2007,04,10,01,03,5.60
2007,04,10,01,04,4.50
2007,04,10,01,05,5.50
2007,04,10,01,06,2.60
2007,04,10,01,07,4.40
2007,04,10,01,08,3.40
2007,04,10,01,09,3.70
2007,04,10,01,10,3.20
2007,04,10,01,11,6.00
2007,04,10,01,12,3.90
2007,04,10,01,13,2.60
2007,04,10,01,14,1.50
2007,04,10,01,15,2.50
2007,04,10,01,16,0.10
2007,04,10,01,17,0.00
2007,04,10,01,18,0.00
2007,04,10,01,19,0.00
2007,04,10,01,20,0.80
2007,04,10,01,21,0.20
2007,04,10,01,22,1.10
2007,04,10,01,23,0.20
2007,04,10,01,24,0.50
2007,04,10,01,25,1.00
2007,04,10,01,26,0.50
2007,04,10,01,27,0.00
2007,04,10,01,28,0.00
2007,04,10,01,29,0.00
2007,04,10,01,30,0.20
2007,04,10,01,31,0.00
2007,04,10,01,32,0.00
2007,04,10,01,33,0.10
2007,04,10,01,34,0.60
2007,04,10,01,35,0.10
2007,04,10,01,36,0.00
2007,04,10,01,37,0.00
2007,04,10,01,38,0.00
2007,04,10,01,39,0.00
2007,04,10,01,40,0.00
2007,04,10,01,41,0.30
2007,04,10,01,42,1.10
2007,04,10,01,43,0.70
2007,04,10,01,44,0.60
2007,04,10,01,45,0.20
2007,04,10,01,46,0.00
2007,04,10,01,47,0.00
2007,04,10,01,48,0.00
2007,04,10,01,49,0.00
2007,04,10,01,50,0.00
2007,04,10,01,51,0.00
2007,04,10,01,52,0.00
2007,04,10,01,53,0.00
2007,04,10,01,54,0.00
2007,04,10,01,55,0.00
2007,04,10,01,56,0.10
2007,04,10,01,57,0.10
2007,04,10,01,58,1.70
2007,04,10,01,59,2.70
2007,04,10,02,00,1.90
2007,04,10,02,01,1.80
2007,04,10,02,02,1.10
2007,04,10,02,03,0.00
2007,04,10,02,04,0.00
2007,04,10,02,05,0.60
2007,04,10,02,06,0.80
2007,04,10,02,07,0.20
2007,04,10,02,08,0.90
2007,04,10,02,09,0.30
2007,04,10,02,10,0.20
2007,04,10,02,11,0.10
2007,04,10,02,12,0.20
2007,04,10,02,13,1.10
2007,04,10,02,14,0.30
2007,04,10,02,15,0.00
2007,04,10,02,16,0.20
2007,04,10,02,17,0.00
2007,04,10,02,18,0.00
2007,04,10,02,19,0.00
2007,04,10,02,20,1.40
2007,04,10,02,21,0.40
2007,04,10,02,22,0.90
2007,04,10,02,23,0.10
2007,04,10,02,24,0.50
2007,04,10,02,25,1.60
2007,04,10,02,26,0.80
2007,04,10,02,27,0.70
2007,04,10,02,28,1.00
2007,04,10,02,29,0.20
2007,04,10,02,30,0.00
2007,04,10,02,31,0.20
2007,04,10,02,32,0.00
2007,04,10,02,33,0.00
2007,04,10,02,34,0.00
2007,04,10,02,35,0.20
2007,04,10,02,36,0.40
2007,04,10,02,37,1.00
2007,04,10,02,38,1.40
2007,04,10,02,39,1.30
2007,04,10,02,40,1.40
2007,04,10,02,41,0.60
2007,04,10,02,42,1.30
2007,04,10,02,43,1.60
2007,04,10,02,44,1.30
2007,04,10,02,45,1.60
2007,04,10,02,46,0.20
2007,04,10,02,47,0.10
2007,04,10,02,48,0.70
2007,04,10,02,49,0.90
2007,04,10,02,50,0.30
2007,04,10,02,51,0.50
2007,04,10,02,52,1.00
2007,04,10,02,53,0.20
2007,04,10,02,54,0.00
2007,04,10,02,55,0.40
2007,04,10,02,56,0.10
2007,04,10,02,57,0.10
2007,04,10,02,58,0.20
2007,04,10,02,59,1.10
2007,04,10,03,00,2.50
2007,04,10,03,01,1.40
2007,04,10,03,02,1.50
2007,04,10,03,03,0.20
2007,04,10,03,04,0.20
2007,04,10,03,05,0.40
2007,04,10,03,06,0.00
2007,04,10,03,07,0.30
2007,04,10,03,08,1.20
2007,04,10,03,09,0.00
2007,04,10,03,10,0.00
2007,04,10,03,11,0.00
2007,04,10,03,12,0.00
2007,04,10,03,13,0.00
2007,04,10,03,14,0.00
2007,04,10,03,15,0.00
2007,04,10,03,16,0.00
2007,04,10,03,17,0.00
2007,04,10,03,18,0.00
2007,04,10,03,19,0.00
2007,04,10,03,20,0.10
2007,04,10,03,21,0.10
2007,04,10,03,22,0.00
2007,04,10,03,23,0.60
2007,04,10,03,24,0.20
2007,04,10,03,25,0.00
2007,04,10,03,26,0.00
2007,04,10,03,27,0.20
2007,04,10,03,28,0.30
2007,04,10,03,29,0.00
2007,04,10,03,30,0.00
2007,04,10,03,31,0.00
2007,04,10,03,32,0.00
2007,04,10,03,33,0.00
2007,04,10,03,34,0.00
2007,04,10,03,35,0.00
2007,04,10,03,36,0.00
2007,04,10,03,37,0.00
2007,04,10,03,38,0.00
2007,04,10,03,39,0.00
2007,04,10,03,40,0.00
2007,04,10,03,41,0.10
2007,04,10,03,42,0.50
2007,04,10,03,43,0.00
2007,04,10,03,44,0.00
2007,04,10,03,45,0.00
2007,04,10,03,46,0.20
2007,04,10,03,47,0.20
2007,04,10,03,48,1.50
2007,04,10,03,49,0.30
2007,04,10,03,50,0.10
2007,04,10,03,51,0.60
2007,04,10,03,52,0.20
2007,04,10,03,53,0.00
2007,04,10,03,54,0.00
2007,04,10,03,55,0.20
2007,04,10,03,56,3.00
2007,04,10,03,57,3.00
2007,04,10,03,58,4.50
2007,04,10,03,59,4.00
2007,04,10,04,00,2.90
2007,04,10,04,01,2.40
2007,04,10,04,02,2.10
2007,04,10,04,03,1.40
2007,04,10,04,04,0.30
2007,04,10,04,05,0.20
2007,04,10,04,06,0.00
2007,04,10,04,07,0.00
2007,04,10,04,08,0.00
2007,04,10,04,09,0.40
2007,04,10,04,10,0.90
2007,04,10,04,11,1.70
2007,04,10,04,12,3.20
2007,04,10,04,13,3.30
2007,04,10,04,14,4.30
2007,04,10,04,15,4.30
2007,04,10,04,16,3.30
2007,04,10,04,17,4.40
2007,04,10,04,18,1.80
2007,04,10,04,19,0.10
2007,04,10,04,20,0.00
2007,04,10,04,21,0.00
2007,04,10,04,22,0.00
2007,04,10,04,23,0.00
2007,04,10,04,24,0.00
2007,04,10,04,25,0.00
2007,04,10,04,26,0.00
2007,04,10,04,27,0.60
2007,04,10,04,28,0.90
2007,04,10,04,29,0.80
2007,04,10,04,30,0.70
2007,04,10,04,31,1.90
2007,04,10,04,32,0.60
2007,04,10,04,33,0.00
2007,04,10,04,34,0.00
2007,04,10,04,35,0.10
2007,04,10,04,36,0.20
2007,04,10,04,37,1.10
2007,04,10,04,38,0.30
2007,04,10,04,39,0.00
2007,04,10,04,40,0.00
2007,04,10,04,41,0.00
2007,04,10,04,42,0.60
2007,04,10,04,43,2.30
2007,04,10,04,44,0.90
2007,04,10,04,45,1.00
2007,04,10,04,46,2.30
2007,04,10,04,47,2.00
2007,04,10,04,48,2.70
2007,04,10,04,49,2.70
2007,04,10,04,50,0.80
2007,04,10,04,51,0.70
2007,04,10,04,52,0.40
2007,04,10,04,53,2.50
2007,04,10,04,54,3.00
2007,04,10,04,55,0.60
2007,04,10,04,56,1.10
2007,04,10,04,57,1.50
2007,04,10,04,58,0.00
2007,04,10,04,59,0.90
2007,04,10,05,00,1.20
2007,04,10,05,01,0.80
2007,04,10,05,02,1.00
2007,04,10,05,03,0.00
2007,04,10,05,04,0.00
2007,04,10,05,05,0.60
2007,04,10,05,06,0.00
2007,04,10,05,07,0.20
2007,04,10,05,08,0.00
2007,04,10,05,09,0.00
2007,04,10,05,10,0.00
2007,04,10,05,11,0.00
2007,04,10,05,12,0.20
2007,04,10,05,13,3.20
2007,04,10,05,14,3.00
2007,04,10,05,15,1.00
2007,04,10,05,16,1.50
2007,04,10,05,17,2.50
2007,04,10,05,18,3.80
2007,04,10,05,19,3.40
2007,04,10,05,20,4.40
2007,04,10,05,21,5.50
2007,04,10,05,22,3.50
2007,04,10,05,23,2.60
2007,04,10,05,24,1.40
2007,04,10,05,25,0.10
2007,04,10,05,26,0.00
2007,04,10,05,27,0.00
2007,04,10,05,28,0.50
2007,04,10,05,29,0.70
2007,04,10,05,30,1.40
2007,04,10,05,31,1.40
2007,04,10,05,32,0.20
2007,04,10,05,33,0.00
2007,04,10,05,34,1.70
2007,04,10,05,35,0.10
2007,04,10,05,36,0.10
2007,04,10,05,37,0.20
2007,04,10,05,38,0.00
2007,04,10,05,39,0.00
2007,04,10,05,40,0.00
2007,04,10,05,41,0.20
2007,04,10,05,42,0.00
2007,04,10,05,43,0.00
2007,04,10,05,44,0.00
2007,04,10,05,45,0.00
2007,04,10,05,46,0.00
2007,04,10,05,47,0.00
2007,04,10,05,48,0.10
2007,04,10,05,49,0.00
2007,04,10,05,50,0.00
2007,04,10,05,51,0.00
2007,04,10,05,52,0.00
2007,04,10,05,53,0.00
2007,04,10,05,54,0.00
2007,04,10,05,55,0.00
2007,04,10,05,56,0.00
2007,04,10,05,57,0.00
2007,04,10,05,58,0.00
2007,04,10,05,59,0.00
2007,04,10,06,00,0.00
2007,04,10,06,01,0.00
2007,04,10,06,02,0.00
2007,04,10,06,03,0.00
2007,04,10,06,04,0.00
2007,04,10,06,05,0.60
2007,04,10,06,06,0.30
2007,04,10,06,07,0.10
2007,04,10,06,08,0.00
2007,04,10,06,09,0.00
2007,04,10,06,10,0.00
2007,04,10,06,11,0.00
2007,04,10,06,12,0.00
2007,04,10,06,13,0.00
2007,04,10,06,14,0.00
2007,04,10,06,15,0.00
2007,04,10,06,16,0.10
2007,04,10,06,17,0.00
2007,04,10,06,18,0.30
2007,04,10,06,19,0.90
2007,04,10,06,20,1.50
2007,04,10,06,21,1.60
2007,04,10,06,22,0.50
2007,04,10,06,23,0.60
2007,04,10,06,24,0.20
2007,04,10,06,25,0.00
2007,04,10,06,26,0.00
2007,04,10,06,27,0.00
2007,04,10,06,28,0.20
2007,04,10,06,29,0.50
2007,04,10,06,30,0.20
2007,04,10,06,31,0.00
2007,04,10,06,32,0.00
2007,04,10,06,33,0.00
2007,04,10,06,34,0.00
2007,04,10,06,35,0.00
2007,04,10,06,36,0.00
2007,04,10,06,37,0.00
2007,04,10,06,38,0.00
2007,04,10,06,39,0.00
2007,04,10,06,40,0.20
2007,04,10,06,41,0.00
2007,04,10,06,42,0.00
2007,04,10,06,43,0.30
2007,04,10,06,44,1.40
2007,04,10,06,45,1.70
2007,04,10,06,46,1.90
2007,04,10,06,47,1.90
2007,04,10,06,48,2.00
2007,04,10,06,49,1.20
2007,04,10,06,50,0.50
2007,04,10,06,51,0.80
2007,04,10,06,52,1.60
2007,04,10,06,53,2.00
2007,04,10,06,54,2.60
2007,04,10,06,55,1.90
2007,04,10,06,56,1.30
2007,04,10,06,57,0.50
2007,04,10,06,58,1.90
2007,04,10,06,59,3.90
2007,04,10,07,00,3.70
2007,04,10,07,01,1.50
2007,04,10,07,02,1.50
2007,04,10,07,03,0.40
2007,04,10,07,04,2.60
2007,04,10,07,05,4.10
2007,04,10,07,06,3.90
2007,04,10,07,07,1.70
2007,04,10,07,08,1.50
2007,04,10,07,09,0.20
2007,04,10,07,10,0.00
2007,04,10,07,11,0.20
2007,04,10,07,12,0.20
2007,04,10,07,13,0.60
2007,04,10,07,14,0.10
2007,04,10,07,15,0.00
2007,04,10,07,16,0.00
2007,04,10,07,17,0.00
2007,04,10,07,18,0.00
2007,04,10,07,19,0.00
2007,04,10,07,20,0.20
2007,04,10,07,21,0.00
2007,04,10,07,22,0.00
2007,04,10,07,23,0.00
2007,04,10,07,24,0.00
2007,04,10,07,25,0.10
2007,04,10,07,26,0.00
2007,04,10,07,27,0.00
2007,04,10,07,28,0.00
2007,04,10,07,29,0.00
2007,04,10,07,30,0.00
2007,04,10,07,31,0.00
2007,04,10,07,32,0.00
2007,04,10,07,33,0.00
2007,04,10,07,34,0.00
2007,04,10,07,35,0.00
2007,04,10,07,36,0.00
2007,04,10,07,37,0.00
2007,04,10,07,38,0.00
2007,04,10,07,39,0.00
2007,04,10,07,40,0.00
2007,04,10,07,41,0.00
2007,04,10,07,42,0.00
2007,04,10,07,43,0.00
2007,04,10,07,44,0.00
2007,04,10,07,45,0.00
2007,04,10,07,46,0.00
2007,04,10,07,47,0.00
2007,04,10,07,48,0.20
2007,04,10,07,49,1.20
2007,04,10,07,50,1.50
2007,04,10,07,51,0.50
2007,04,10,07,52,0.10
2007,04,10,07,53,0.10
2007,04,10,07,54,0.00
2007,04,10,07,55,0.00
2007,04,10,07,56,0.00
2007,04,10,07,57,0.00
2007,04,10,07,58,0.00
2007,04,10,07,59,0.00
2007,04,10,08,00,0.00
2007,04,10,08,01,0.00
2007,04,10,08,02,0.00
2007,04,10,08,03,0.00
2007,04,10,08,04,0.20
2007,04,10,08,05,0.50
2007,04,10,08,06,0.60
2007,04,10,08,07,0.00
2007,04,10,08,08,0.00
2007,04,10,08,09,0.00
2007,04,10,08,10,0.40
2007,04,10,08,11,0.70
2007,04,10,08,12,0.00
2007,04,10,08,13,0.00
2007,04,10,08,14,0.00
2007,04,10,08,15,0.00
2007,04,10,08,16,0.20
2007,04,10,08,17,0.10
2007,04,10,08,18,0.00
2007,04,10,08,19,0.00
2007,04,10,08,20,0.00
2007,04,10,08,21,0.00
2007,04,10,08,22,0.00
2007,04,10,08,23,0.00
2007,04,10,08,24,0.00
2007,04,10,08,25,0.00
2007,04,10,08,26,0.20
2007,04,10,08,27,0.00
2007,04,10,08,28,0.10
2007,04,10,08,29,0.10
2007,04,10,08,30,0.40
2007,04,10,08,31,0.00
2007,04,10,08,32,0.00
2007,04,10,08,33,0.20
2007,04,10,08,34,0.00
2007,04,10,08,35,2.50
2007,04,10,08,36,2.30
2007,04,10,08,37,0.90
2007,04,10,08,38,1.60
2007,04,10,08,39,2.60
2007,04,10,08,40,0.90
2007,04,10,08,41,1.90
2007,04,10,08,42,2.50
2007,04,10,08,43,1.40
2007,04,10,08,44,1.10
2007,04,10,08,45,0.80
2007,04,10,08,46,2.90
2007,04,10,08,47,2.50
2007,04,10,08,48,0.60
2007,04,10,08,49,0.30
2007,04,10,08,50,1.10
2007,04,10,08,51,1.50
2007,04,10,08,52,0.10
2007,04,10,08,53,4.40
2007,04,10,08,54,4.40
2007,04,10,08,55,9.40
2007,04,10,08,56,4.30
2007,04,10,08,57,2.30
2007,04,10,08,58,2.80
2007,04,10,08,59,3.60
2007,04,10,09,00,2.80
2007,04,10,09,01,7.10
2007,04,10,09,02,9.70
2007,04,10,09,03,9.50
2007,04,10,09,04,2.60
2007,04,10,09,05,1.40
2007,04,10,09,06,1.30
2007,04,10,09,07,1.70
2007,04,10,09,08,3.70
2007,04,10,09,09,4.20
2007,04,10,09,10,3.70
2007,04,10,09,11,4.50
2007,04,10,09,12,7.10
2007,04,10,09,13,7.00
2007,04,10,09,14,7.10
2007,04,10,09,15,2.50
2007,04,10,09,16,5.20
2007,04,10,09,17,4.30
2007,04,10,09,18,5.50
2007,04,10,09,19,1.50
2007,04,10,09,20,1.90
2007,04,10,09,21,6.80
2007,04,10,09,22,6.60
2007,04,10,09,23,7.90
2007,04,10,09,24,5.00
2007,04,10,09,25,2.20
2007,04,10,09,26,0.80
2007,04,10,09,27,1.70
2007,04,10,09,28,1.50
2007,04,10,09,29,0.20
2007,04,10,09,30,1.30
2007,04,10,09,31,1.40
2007,04,10,09,32,1.00
2007,04,10,09,33,0.50
2007,04,10,09,34,1.00
2007,04,10,09,35,1.00
2007,04,10,09,36,2.10
2007,04,10,09,37,3.10
2007,04,10,09,38,1.80
2007,04,10,09,39,1.90
2007,04,10,09,40,2.30
2007,04,10,09,41,3.20
2007,04,10,09,42,5.00
2007,04,10,09,43,3.70
2007,04,10,09,44,5.30
2007,04,10,09,45,4.10
2007,04,10,09,46,3.90
2007,04,10,09,47,3.10
2007,04,10,09,48,4.40
2007,04,10,09,49,5.50
2007,04,10,09,50,1.90
2007,04,10,09,51,0.60
2007,04,10,09,52,0.90
2007,04,10,09,53,3.80
2007,04,10,09,54,4.80
2007,04,10,09,55,4.80
2007,04,10,09,56,2.60
2007,04,10,09,57,0.20
2007,04,10,09,58,2.60
2007,04,10,09,59,6.70
2007,04,10,10,00,2.80
2007,04,10,10,01,4.70
2007,04,10,10,02,6.60
2007,04,10,10,03,3.10
2007,04,10,10,04,6.20
2007,04,10,10,05,4.40
2007,04,10,10,06,3.60
2007,04,10,10,07,5.10
2007,04,10,10,08,3.90
2007,04,10,10,09,4.00
2007,04,10,10,10,6.70
2007,04,10,10,11,7.10
2007,04,10,10,12,7.60
2007,04,10,10,13,5.20
2007,04,10,10,14,5.10
2007,04,10,10,15,4.10
2007,04,10,10,16,7.20
2007,04,10,10,17,3.90
2007,04,10,10,18,2.40
2007,04,10,10,19,3.30
2007,04,10,10,20,6.10
2007,04,10,10,21,4.90
2007,04,10,10,22,3.10
2007,04,10,10,23,1.80
2007,04,10,10,24,4.50
2007,04,10,10,25,6.90
2007,04,10,10,26,4.30
2007,04,10,10,27,4.20
2007,04,10,10,28,3.70
2007,04,10,10,29,0.80
2007,04,10,10,30,1.50
2007,04,10,10,31,1.90
2007,04,10,10,32,5.90
2007,04,10,10,33,4.40
2007,04,10,10,34,3.90
2007,04,10,10,35,6.20
2007,04,10,10,36,5.40
2007,04,10,10,37,3.60
2007,04,10,10,38,5.30
2007,04,10,10,39,7.50
2007,04,10,10,40,9.50
2007,04,10,10,41,11.20
2007,04,10,10,42,7.80
2007,04,10,10,43,6.00
2007,04,10,10,44,13.40
2007,04,10,10,45,8.50
2007,04,10,10,46,3.40
2007,04,10,10,47,1.10
2007,04,10,10,48,1.90
2007,04,10,10,49,3.90
2007,04,10,10,50,6.50
2007,04,10,10,51,2.80
2007,04,10,10,52,3.80
2007,04,10,10,53,2.90
2007,04,10,10,54,7.00
2007,04,10,10,55,4.00
2007,04,10,10,56,4.50
2007,04,10,10,57,6.00
2007,04,10,10,58,8.30
2007,04,10,10,59,3.50
2007,04,10,11,00,6.30
2007,04,10,11,01,4.70
2007,04,10,11,02,3.90
2007,04,10,11,03,9.30
2007,04,10,11,04,8.00
2007,04,10,11,05,6.40
2007,04,10,11,06,8.10
2007,04,10,11,07,4.10
2007,04,10,11,08,6.50
2007,04,10,11,09,6.70
2007,04,10,11,10,11.30
2007,04,10,11,11,8.80
2007,04,10,11,12,11.70
2007,04,10,11,13,8.20
2007,04,10,11,14,6.00
2007,04,10,11,15,9.80
2007,04,10,11,16,13.60
2007,04,10,11,17,11.40
2007,04,10,11,18,7.10
2007,04,10,11,19,7.80
2007,04,10,11,20,8.50
2007,04,10,11,21,5.40
2007,04,10,11,22,7.10
2007,04,10,11,23,7.20
2007,04,10,11,24,4.20
2007,04,10,11,25,8.50
2007,04,10,11,26,7.10
2007,04,10,11,27,12.70
2007,04,10,11,28,6.50
2007,04,10,11,29,6.90
2007,04,10,11,30,4.20
2007,04,10,11,31,7.00
2007,04,10,11,32,13.10
2007,04,10,11,33,13.80
2007,04,10,11,34,4.10
2007,04,10,11,35,5.00
2007,04,10,11,36,3.70
2007,04,10,11,37,6.40
2007,04,10,11,38,8.00
2007,04,10,11,39,6.10
2007,04,10,11,40,7.90
2007,04,10,11,41,8.40
2007,04,10,11,42,7.60
2007,04,10,11,43,8.40
2007,04,10,11,44,3.70
2007,04,10,11,45,6.70
2007,04,10,11,46,15.40
2007,04,10,11,47,14.60
2007,04,10,11,48,3.10
2007,04,10,11,49,10.00
2007,04,10,11,50,6.70
2007,04,10,11,51,4.10
2007,04,10,11,52,4.40
2007,04,10,11,53,8.50
2007,04,10,11,54,12.00
2007,04,10,11,55,15.30
2007,04,10,11,56,10.20
2007,04,10,11,57,10.10
2007,04,10,11,58,6.70
2007,04,10,11,59,9.60
2007,04,10,12,00,11.80
2007,04,10,12,01,10.40
2007,04,10,12,02,10.80
2007,04,10,12,03,7.60
2007,04,10,12,04,4.60
2007,04,10,12,05,9.00
2007,04,10,12,06,7.30
2007,04,10,12,07,7.50
2007,04,10,12,08,3.10
2007,04,10,12,09,4.30
2007,04,10,12,10,10.10
2007,04,10,12,11,7.50
2007,04,10,12,12,5.10
2007,04,10,12,13,5.70
2007,04,10,12,14,1.90
2007,04,10,12,15,1.70
2007,04,10,12,16,12.40
2007,04,10,12,17,7.50
2007,04,10,12,18,3.70
2007,04,10,12,19,6.20
2007,04,10,12,20,7.30
2007,04,10,12,21,6.40
2007,04,10,12,22,5.10
2007,04,10,12,23,9.40
2007,04,10,12,24,6.40
2007,04,10,12,25,6.00
2007,04,10,12,26,7.10
2007,04,10,12,27,12.00
2007,04,10,12,28,13.90
2007,04,10,12,29,10.90
2007,04,10,12,30,15.70
2007,04,10,12,31,9.70
2007,04,10,12,32,10.10
2007,04,10,12,33,8.10
2007,04,10,12,34,7.30
2007,04,10,12,35,7.70
2007,04,10,12,36,2.00
2007,04,10,12,37,9.40
2007,04,10,12,38,8.20
2007,04,10,12,39,8.10
2007,04,10,12,40,3.70
2007,04,10,12,41,7.70
2007,04,10,12,42,11.60
2007,04,10,12,43,3.00
2007,04,10,12,44,3.70
2007,04,10,12,45,2.30
2007,04,10,12,46,6.60
2007,04,10,12,47,8.40
2007,04,10,12,48,13.90
2007,04,10,12,49,6.70
2007,04,10,12,50,6.10
2007,04,10,12,51,10.50
2007,04,10,12,52,8.90
2007,04,10,12,53,11.90
2007,04,10,12,54,7.80
2007,04,10,12,55,4.20
2007,04,10,12,56,11.70
2007,04,10,12,57,12.10
2007,04,10,12,58,11.20
2007,04,10,12,59,3.60
2007,04,10,13,00,5.60
2007,04,10,13,01,15.00
2007,04,10,13,02,15.80
2007,04,10,13,03,8.50
2007,04,10,13,04,7.70
2007,04,10,13,05,8.90
2007,04,10,13,06,5.30
2007,04,10,13,07,12.20
2007,04,10,13,08,8.40
2007,04,10,13,09,8.50
2007,04,10,13,10,4.70
2007,04,10,13,11,5.00
2007,04,10,13,12,10.90
2007,04,10,13,13,13.30
2007,04,10,13,14,6.00
2007,04,10,13,15,4.10
2007,04,10,13,16,11.20
2007,04,10,13,17,11.30
2007,04,10,13,18,10.50
2007,04,10,13,19,8.50
2007,04,10,13,20,12.50
2007,04,10,13,21,13.30
2007,04,10,13,22,15.00
2007,04,10,13,23,9.60
2007,04,10,13,24,9.70
2007,04,10,13,25,4.90
2007,04,10,13,26,7.40
2007,04,10,13,27,11.30
2007,04,10,13,28,6.80
2007,04,10,13,29,13.30
2007,04,10,13,30,8.10
2007,04,10,13,31,10.60
2007,04,10,13,32,4.80
2007,04,10,13,33,13.50
2007,04,10,13,34,7.90
2007,04,10,13,35,15.60
2007,04,10,13,36,16.60
2007,04,10,13,37,10.80
2007,04,10,13,38,6.20
2007,04,10,13,39,8.70
2007,04,10,13,40,5.90
2007,04,10,13,41,5.90
2007,04,10,13,42,5.30
2007,04,10,13,43,2.50
2007,04,10,13,44,11.10
2007,04,10,13,45,9.80
2007,04,10,13,46,12.10
2007,04,10,13,47,11.10
2007,04,10,13,48,9.00
2007,04,10,13,49,11.50
2007,04,10,13,50,8.40
2007,04,10,13,51,2.80
2007,04,10,13,52,4.10
2007,04,10,13,53,7.60
2007,04,10,13,54,6.90
2007,04,10,13,55,5.80
2007,04,10,13,56,7.30
2007,04,10,13,57,6.20
2007,04,10,13,58,4.40
2007,04,10,13,59,7.70
2007,04,10,14,00,9.70
2007,04,10,14,01,9.80
2007,04,10,14,02,7.70
2007,04,10,14,03,12.00
2007,04,10,14,04,5.60
2007,04,10,14,05,6.40
2007,04,10,14,06,13.90
2007,04,10,14,07,12.20
2007,04,10,14,08,6.10
2007,04,10,14,09,6.10
2007,04,10,14,10,7.90
2007,04,10,14,11,14.10
2007,04,10,14,12,7.10
2007,04,10,14,13,11.70
2007,04,10,14,14,8.80
2007,04,10,14,15,11.30
2007,04,10,14,16,13.50
2007,04,10,14,17,9.70
2007,04,10,14,18,11.00
2007,04,10,14,19,6.90
2007,04,10,14,20,13.60
2007,04,10,14,21,9.10
2007,04,10,14,22,13.70
2007,04,10,14,23,13.00
2007,04,10,14,24,7.90
2007,04,10,14,25,7.40
2007,04,10,14,26,13.00
2007,04,10,14,27,14.30
2007,04,10,14,28,11.00
2007,04,10,14,29,5.00
2007,04,10,14,30,6.50
2007,04,10,14,31,8.40
2007,04,10,14,32,12.40
2007,04,10,14,33,9.50
2007,04,10,14,34,9.40
2007,04,10,14,35,14.00
2007,04,10,14,36,6.80
2007,04,10,14,37,6.80
2007,04,10,14,38,8.00
2007,04,10,14,39,10.00
2007,04,10,14,40,16.40
2007,04,10,14,41,7.20
2007,04,10,14,42,7.30
2007,04,10,14,43,8.40
2007,04,10,14,44,7.10
2007,04,10,14,45,7.80
2007,04,10,14,46,8.00
2007,04,10,14,47,6.20
2007,04,10,14,48,8.40
2007,04,10,14,49,7.60
2007,04,10,14,50,8.00
2007,04,10,14,51,11.60
2007,04,10,14,52,11.40
2007,04,10,14,53,6.40
2007,04,10,14,54,9.10
2007,04,10,14,55,18.50
2007,04,10,14,56,9.60
2007,04,10,14,57,7.30
2007,04,10,14,58,3.10
2007,04,10,14,59,4.80
2007,04,10,15,00,7.40
2007,04,10,15,01,10.30
2007,04,10,15,02,7.60
2007,04,10,15,03,7.40
2007,04,10,15,04,4.50
2007,04,10,15,05,5.60
2007,04,10,15,06,3.40
2007,04,10,15,07,6.30
2007,04,10,15,08,12.00
2007,04,10,15,09,6.40
2007,04,10,15,10,5.50
2007,04,10,15,11,9.10
2007,04,10,15,12,5.70
2007,04,10,15,13,6.70
2007,04,10,15,14,6.30
2007,04,10,15,15,6.10
2007,04,10,15,16,9.60
2007,04,10,15,17,9.20
2007,04,10,15,18,6.80
2007,04,10,15,19,11.90
2007,04,10,15,20,14.90
2007,04,10,15,21,14.20
2007,04,10,15,22,7.30
2007,04,10,15,23,6.80
2007,04,10,15,24,12.20
2007,04,10,15,25,6.10
2007,04,10,15,26,10.60
2007,04,10,15,27,11.40
2007,04,10,15,28,11.40
2007,04,10,15,29,9.40
2007,04,10,15,30,7.80
2007,04,10,15,31,15.40
2007,04,10,15,32,6.70
2007,04,10,15,33,5.70
2007,04,10,15,34,6.80
2007,04,10,15,35,7.10
2007,04,10,15,36,7.60
2007,04,10,15,37,5.10
2007,04,10,15,38,11.30
2007,04,10,15,39,12.20
2007,04,10,15,40,9.90
2007,04,10,15,41,6.60
2007,04,10,15,42,6.40
2007,04,10,15,43,4.60
2007,04,10,15,44,13.60
2007,04,10,15,45,5.70
2007,04,10,15,46,5.60
2007,04,10,15,47,4.80
2007,04,10,15,48,6.60
2007,04,10,15,49,11.90
2007,04,10,15,50,6.40
2007,04,10,15,51,8.00
2007,04,10,15,52,9.60
2007,04,10,15,53,15.90
2007,04,10,15,54,12.50
2007,04,10,15,55,8.40
2007,04,10,15,56,10.50
2007,04,10,15,57,5.60
2007,04,10,15,58,10.30
2007,04,10,15,59,11.70
2007,04,10,16,00,7.20
2007,04,10,16,01,9.00
2007,04,10,16,02,10.40
2007,04,10,16,03,6.00
2007,04,10,16,04,5.80
2007,04,10,16,05,6.50
2007,04,10,16,06,8.50
2007,04,10,16,07,7.10
2007,04,10,16,08,4.40
2007,04,10,16,09,12.40
2007,04,10,16,10,12.90
2007,04,10,16,11,7.70
2007,04,10,16,12,15.40
2007,04,10,16,13,12.80
2007,04,10,16,14,9.30
2007,04,10,16,15,5.90
2007,04,10,16,16,11.30
2007,04,10,16,17,9.30
2007,04,10,16,18,9.10
2007,04,10,16,19,6.30
2007,04,10,16,20,8.50
2007,04,10,16,21,9.60
2007,04,10,16,22,9.90
2007,04,10,16,23,7.50
2007,04,10,16,24,8.30
2007,04,10,16,25,9.70
2007,04,10,16,26,11.30
2007,04,10,16,27,10.50
2007,04,10,16,28,12.60
2007,04,10,16,29,6.50
2007,04,10,16,30,1.10
2007,04,10,16,31,7.80
2007,04,10,16,32,5.60
2007,04,10,16,33,8.10
2007,04,10,16,34,6.10
2007,04,10,16,35,6.40
2007,04,10,16,36,5.10
2007,04,10,16,37,10.30
2007,04,10,16,38,8.30
2007,04,10,16,39,6.80
2007,04,10,16,40,7.70
2007,04,10,16,41,7.30
2007,04,10,16,42,10.70
2007,04,10,16,43,5.50
2007,04,10,16,44,4.10
2007,04,10,16,45,5.10
2007,04,10,16,46,4.30
2007,04,10,16,47,7.40
2007,04,10,16,48,3.00
2007,04,10,16,49,4.70
2007,04,10,16,50,8.30
2007,04,10,16,51,6.20
2007,04,10,16,52,12.00
2007,04,10,16,53,5.40
2007,04,10,16,54,6.50
2007,04,10,16,55,12.40
2007,04,10,16,56,8.60
2007,04,10,16,57,6.80
2007,04,10,16,58,6.80
2007,04,10,16,59,6.90
2007,04,10,17,00,7.80
2007,04,10,17,01,7.20
2007,04,10,17,02,5.30
2007,04,10,17,03,3.40
2007,04,10,17,04,4.50
2007,04,10,17,05,8.90
2007,04,10,17,06,5.10
2007,04,10,17,07,5.30
2007,04,10,17,08,5.00
2007,04,10,17,09,7.30
2007,04,10,17,10,10.80
2007,04,10,17,11,8.70
2007,04,10,17,12,6.30
2007,04,10,17,13,5.50
2007,04,10,17,14,5.60
2007,04,10,17,15,7.00
2007,04,10,17,16,10.30
2007,04,10,17,17,10.90
2007,04,10,17,18,4.70
2007,04,10,17,19,4.50
2007,04,10,17,20,8.50
2007,04,10,17,21,9.40
2007,04,10,17,22,4.70
2007,04,10,17,23,6.40
2007,04,10,17,24,3.40
2007,04,10,17,25,6.80
2007,04,10,17,26,8.60
2007,04,10,17,27,8.90
2007,04,10,17,28,6.10
2007,04,10,17,29,6.80
2007,04,10,17,30,3.90
2007,04,10,17,31,6.30
2007,04,10,17,32,6.60
2007,04,10,17,33,8.30
2007,04,10,17,34,5.70
2007,04,10,17,35,3.30
2007,04,10,17,36,6.40
2007,04,10,17,37,5.80
2007,04,10,17,38,5.10
2007,04,10,17,39,2.90
2007,04,10,17,40,8.80
2007,04,10,17,41,8.10
2007,04,10,17,42,8.30
2007,04,10,17,43,2.30
2007,04,10,17,44,2.70
2007,04,10,17,45,6.40
2007,04,10,17,46,5.70
2007,04,10,17,47,5.70
2007,04,10,17,48,1.50
2007,04,10,17,49,2.00
2007,04,10,17,50,0.30
2007,04,10,17,51,0.10
2007,04,10,17,52,1.20
2007,04,10,17,53,1.20
2007,04,10,17,54,2.50
2007,04,10,17,55,3.80
2007,04,10,17,56,4.40
2007,04,10,17,57,3.60
2007,04,10,17,58,5.90
2007,04,10,17,59,4.00
2007,04,10,18,00,4.70